STARLINK-35296, 65801

Orbit data source: Space-Track

STARLINK-35296, 65801 is a payload satellite owned by SpaceX/Seattle (US) in SSO that was launched on Fri, 26 Sep 2025 UTC via an FALCON 9 launch vehicle from the Air Force Western Test Range (AFWTR). Payload-class satellites include a variety of spacecraft equipped with specific instruments for various scientific and technological missions. These include communications satellites like Starlink; space stations such as the ISS; scientific satellites like the Hubble; Earth observation satellites from companies like Planet Labs, Umbra, and HawkEye 360; GPS; miniature CubeSats for education and research; and military/defense satellites.

Loading next visibility...
Identifier
65801, 2025-218L
Orbit
SSO
Country
Flag of USUS
Related business
Manufacturer
SpaceX/Seattle
Mission
Operational Commercial Communications
Bus & Motor
STARLINK V2MO, Unknown motor
Mass
575 kg wet, ~530 kg dry
Launch date (UTC)
2025-09-26 (5 months ago)
Launch vehicle
FALCON 9
Launch site
Air Force Western Test Range (AFWTR)
Object type
Payload
Rocket body
Debris
Shape & HBR
Box + 2 Pan, 17.7 m
Radar Cross Section
36.964 m²

Expand to show TLE details & history
Last TLE update: 9 hours ago

TLE from 9 hours ago
0 STARLINK-35296
1 65801U 25218L   26062.57767040  .00005180  00000-0  36286-3 0  9992
2 65801  97.6016 286.9856 0001959  80.3346 279.8102 15.05659644 24058
Epoch: 2026-03-03T13:51Z
TLE epoch observation values (Epoch: 2026-03-03T13:51:50.722Z)
Latitude
-0.00003°
Longitude
-82.33047°
Altitude
552.316 km
Speed
7.586 km/s
True Right ascension
19h 07m 56s
True Declination
0° 00' 00"
Sunlit
Object was in daylight at epoch
Visualization orbit readout
Latitude
Unknown
Longitude
Unknown
Altitude
Unknown
Speed
Unknown
Apparent Right ascension
Unknown
Apparent Declination
Unknown
Sunlit
N/A
Visualization observer readout
Local Sidereal Time
02:42:20
Azimuth
Unknown
Elevation
Unknown
Doppler factor
Unknown
Orbital elements
Apogee altitude
547.832 km
Perigee altitude
545.118 km
Semi-major axis
6,924.612 km
Eccentricity
0.0002
Inclination
97.6016°
RAAN
286.9856°
Arg. of periapsis
80.3346°
True anomaly
279.78808°
Mean anomaly
279.8102°
Eccentric anomaly
279.79914°
Mean motion
3.7666 °/min
Orbital period
95.58 mins
BSTAR
0.00036286
Loading maneuver chart data...
Computing Atmospheric mass density...
Loading historical data...
Loading historical data...
Loading historical data...
Loading historical data...
Loading historical data...
Loading historical data...
Loading historical data...

Documentation

Showing up to 5 results
|